| time (UTC) | temp C | wind direction | speed KPH | gust KPH | rain 1hr cm | rain 24hr cm | rain mn cm | humidity % | barometer mb |
| 20260505034634 | 12 | 304 | 3.2 | 3.2 | 0.00 | 0.00 | 0.00 | 80 | 1012.1 |
| 20260505033634 | 12 | 303 | 1.6 | 3.2 | 0.00 | 0.00 | 0.00 | 80 | 1012.4 |
| 20260505032630 | 13 | 303 | 0.0 | 0.0 | 0.00 | 0.00 | 0.00 | 79 | 1012.4 |
| 20260505031630 | 13 | 303 | 1.6 | 1.6 | 0.00 | 0.00 | 0.00 | 78 | 1012.4 |
| 20260505030629 | 13 | 303 | 1.6 | 1.6 | 0.00 | 0.00 | 0.00 | 78 | 1012.1 |
| 20260505025626 | 14 | 303 | 0.0 | 1.6 | 0.00 | 0.00 | 0.00 | 76 | 1012.1 |
| 20260505024622 | 15 | 303 | 3.2 | 3.2 | 0.00 | 0.00 | 0.00 | 73 | 1012.4 |
| 20260505023622 | 15 | 303 | 1.6 | 1.6 | 0.00 | 0.00 | 0.00 | 73 | 1012.1 |
| 20260505022622 | 16 | 303 | 0.0 | 1.6 | 0.00 | 0.00 | 0.00 | 68 | 1012.4 |
| 20260505021621 | 16 | 303 | 1.6 | 1.6 | 0.00 | 0.00 | 0.00 | 69 | 1012.4 |
| 20260505020619 | 16 | 302 | 1.6 | 1.6 | 0.00 | 0.00 | 0.00 | 66 | 1012.1 |
| 20260505015619 | 16 | 294 | 6.4 | 8.0 | 0.00 | 0.00 | 0.00 | 67 | 1012.1 |
| 20260505014618 | 15 | 309 | 1.6 | 1.6 | 0.00 | 0.00 | 0.00 | 75 | 1012.4 |
| 20260505013613 | 15 | 310 | 3.2 | 3.2 | 0.00 | 0.00 | 0.00 | 74 | 1012.1 |
| 20260505012608 | 15 | 308 | 3.2 | 3.2 | 0.00 | 0.00 | 0.00 | 77 | 1012.1 |
| 20260505011606 | 15 | 304 | 1.6 | 1.6 | 0.00 | 0.00 | 0.00 | 77 | 1011.8 |
| 20260505010604 | 14 | 325 | 8.0 | 9.7 | 0.00 | 0.00 | 0.00 | 78 | 1011.8 |
| 20260505005603 | 15 | 313 | 0.0 | 0.0 | 0.00 | 0.00 | 0.00 | 78 | 1011.8 |
| 20260505004603 | 15 | 313 | 1.6 | 1.6 | 0.00 | 0.00 | 0.00 | 78 | 1011.4 |
| 20260505003603 | 15 | 313 | 0.0 | 0.0 | 0.00 | 0.00 | 0.00 | 76 | 1011.4 |
| 20260505002601 | 16 | 313 | 0.0 | 0.0 | 0.00 | 0.00 | 0.00 | 74 | 1011.1 |
| 20260505001557 | 16 | 313 | 1.6 | 1.6 | 0.00 | 0.00 | 0.00 | 72 | 1011.1 |
| 20260505000557 | 17 | 314 | 1.6 | 3.2 | 0.00 | 0.00 | 0.00 | 71 | 1011.1 |
| 20260504235557 | 18 | 313 | 0.0 | 0.0 | 0.00 | 0.00 | 0.00 | 67 | 1011.1 |
| 20260504234556 | 20 | 313 | 1.6 | 1.6 | 0.00 | 0.00 | 0.00 | 62 | 1011.1 |
| 20260504233555 | 21 | 313 | 1.6 | 1.6 | 0.00 | 0.00 | 0.00 | 58 | 1011.1 |
| 20260504232555 | 22 | 324 | 1.6 | 3.2 | 0.00 | 0.00 | 0.00 | 49 | 1011.1 |
| 20260504231554 | 23 | 308 | 0.0 | 0.0 | 0.00 | 0.00 | 0.00 | 48 | 1011.1 |
| 20260504230553 | 23 | 51 | 4.8 | 4.8 | 0.00 | 0.00 | 0.00 | 46 | 1011.1 |
| 20260504225549 | 23 | 259 | 3.2 | 3.2 | 0.00 | 0.00 | 0.00 | 46 | 1011.1 |
| 20260504224548 | 25 | 276 | 1.6 | 1.6 | 0.00 | 0.00 | 0.00 | 45 | 1011.1 |
| 20260504223548 | 24 | 273 | 1.6 | 1.6 | 0.00 | 0.00 | 0.00 | 44 | 1011.1 |
| 20260504222547 | 24 | 268 | 1.6 | 3.2 | 0.00 | 0.00 | 0.00 | 45 | 1011.1 |
| 20260504221547 | 25 | 266 | 1.6 | 3.2 | 0.00 | 0.00 | 0.00 | 45 | 1011.4 |
| 20260504220546 | 23 | 260 | 3.2 | 3.2 | 0.00 | 0.00 | 0.00 | 46 | 1011.4 |
| 20260504215545 | 23 | 274 | 0.0 | 1.6 | 0.00 | 0.00 | 0.00 | 46 | 1011.1 |
| 20260504214544 | 23 | 210 | 6.4 | 8.0 | 0.00 | 0.00 | 0.00 | 47 | 1011.4 |
| 20260504213543 | 23 | 237 | 4.8 | 4.8 | 0.00 | 0.00 | 0.00 | 47 | 1011.4 |
| 20260504212542 | 22 | 259 | 8.0 | 9.7 | 0.00 | 0.00 | 0.00 | 48 | 1011.4 |
| 20260504211542 | 23 | 289 | 4.8 | 8.0 | 0.00 | 0.00 | 0.00 | 46 | 1011.4 |
| 20260504210542 | 23 | 293 | 4.8 | 8.0 | 0.00 | 0.00 | 0.00 | 46 | 1011.1 |
| 20260504205542 | 22 | 257 | 8.0 | 9.7 | 0.00 | 0.00 | 0.00 | 47 | 1011.1 |
| 20260504204538 | 22 | 252 | 3.2 | 4.8 | 0.00 | 0.00 | 0.00 | 47 | 1011.1 |
| 20260504203534 | 23 | 271 | 3.2 | 4.8 | 0.00 | 0.00 | 0.00 | 45 | 1011.1 |
| 20260504202533 | 22 | 252 | 3.2 | 4.8 | 0.00 | 0.00 | 0.00 | 47 | 1011.4 |
| 20260504201533 | 23 | 290 | 6.4 | 9.7 | 0.00 | 0.00 | 0.00 | 42 | 1011.4 |
| 20260504200532 | 23 | 180 | 4.8 | 8.0 | 0.00 | 0.00 | 0.00 | 46 | 1011.4 |
| 20260504195531 | 23 | 255 | 4.8 | 8.0 | 0.00 | 0.00 | 0.00 | 44 | 1011.8 |
| 20260504194531 | 23 | 298 | 4.8 | 8.0 | 0.00 | 0.00 | 0.00 | 45 | 1011.4 |
| 20260504193529 | 23 | 196 | 6.4 | 11.3 | 0.00 | 0.00 | 0.00 | 45 | 1011.8 |
| 20260504192526 | 23 | 243 | 4.8 | 8.0 | 0.00 | 0.00 | 0.00 | 46 | 1011.8 |
| 20260504191521 | 23 | 113 | 6.4 | 8.0 | 0.00 | 0.00 | 0.00 | 44 | 1011.8 |
| 20260504190519 | 22 | 261 | 3.2 | 4.8 | 0.00 | 0.00 | 0.00 | 46 | 1012.1 |
| 20260504185518 | 22 | 186 | 4.8 | 11.3 | 0.00 | 0.00 | 0.00 | 46 | 1012.1 |
| 20260504184515 | 21 | 292 | 8.0 | 9.7 | 0.00 | 0.00 | 0.00 | 47 | 1012.1 |
| 20260504183514 | 21 | 270 | 4.8 | 8.0 | 0.00 | 0.00 | 0.00 | 49 | 1012.8 |
| 20260504182509 | 22 | 246 | 4.8 | 4.8 | 0.00 | 0.00 | 0.00 | 47 | 1012.8 |
| 20260504181509 | 21 | 285 | 3.2 | 3.2 | 0.00 | 0.00 | 0.00 | 47 | 1012.8 |
| 20260504180506 | 21 | 260 | 11.3 | 11.3 | 0.00 | 0.00 | 0.00 | 46 | 1012.8 |
| 20260504175501 | 22 | 226 | 8.0 | 9.7 | 0.00 | 0.00 | 0.00 | 45 | 1012.8 |
| 20260504174456 | 22 | 199 | 4.8 | 4.8 | 0.00 | 0.00 | 0.00 | 46 | 1012.8 |
| 20260504173455 | 22 | 254 | 11.3 | 14.5 | 0.00 | 0.00 | 0.00 | 44 | 1013.2 |
| 20260504172454 | 22 | 203 | 11.3 | 16.1 | 0.00 | 0.00 | 0.00 | 44 | 1013.2 |
| 20260504171454 | 22 | 282 | 8.0 | 11.3 | 0.00 | 0.00 | 0.00 | 44 | 1013.2 |
| 20260504170453 | 21 | 252 | 3.2 | 4.8 | 0.00 | 0.00 | 0.00 | 46 | 1013.2 |
| 20260504160442 | 20 | 308 | 1.6 | 1.6 | 0.00 | 0.00 | 0.00 | 46 | 1014.2 |
| 20260504150432 | 18 | 266 | 6.4 | 9.7 | 0.00 | 0.00 | 0.00 | 48 | 1014.9 |
| 20260504140423 | 16 | 264 | 4.8 | 4.8 | 0.00 | 0.00 | 0.00 | 53 | 1015.3 |
| 20260504130417 | 15 | 271 | 4.8 | 4.8 | 0.00 | 0.00 | 0.00 | 52 | 1014.9 |
| 20260504110345 | 7 | 304 | 0.0 | 0.0 | 0.00 | 0.00 | 0.00 | 84 | 1015.6 |
| 20260504100331 | 6 | 306 | 1.6 | 1.6 | 0.00 | 0.00 | 0.00 | 86 | 1015.6 |
| 20260504081308 | 7 | 305 | 0.0 | 0.0 | 0.00 | 0.00 | 0.00 | 88 | 1015.3 |
| 20260504080307 | 7 | 305 | 0.0 | 0.0 | 0.00 | 0.00 | 0.00 | 88 | 1015.3 |
| 20260504070252 | 7 | 305 | 0.0 | 0.0 | 0.00 | 0.00 | 0.00 | 86 | 1015.3 |
| 20260504060241 | 7 | 304 | 0.0 | 0.0 | 0.00 | 0.00 | 0.00 | 82 | 1015.6 |
| 20260504050229 | 6 | 301 | 0.0 | 0.0 | 0.00 | 0.00 | 0.00 | 84 | 1015.6 |
| 20260504045226 | 6 | 301 | 0.0 | 0.0 | 0.00 | 0.00 | 0.00 | 85 | 1015.3 |
| 20260504044222 | 6 | 301 | 0.0 | 0.0 | 0.00 | 0.00 | 0.00 | 83 | 1015.3 |
| 20260504043221 | 5 | 301 | 0.0 | 0.0 | 0.00 | 0.00 | 0.00 | 85 | 1015.3 |
| 20260504042221 | 5 | 301 | 0.0 | 0.0 | 0.00 | 0.00 | 0.00 | 83 | 1015.3 |
| 20260504041219 | 5 | 301 | 0.0 | 0.0 | 0.00 | 0.00 | 0.00 | 81 | 1015.3 |
| 20260504040219 | 5 | 301 | 0.0 | 0.0 | 0.00 | 0.00 | 0.00 | 79 | 1015.6 |